Simultaneous Nadir Overpasses (SNOs) Predictions

Prediction of SNOs between AQUA and METOP-B Satellite Orbit:

Table of predicted SNOs for the next 14.0 days since TLE Epoch: 10/21/2023
Index Date (AQUA) Time (AQUA) Lat,Lon (AQUA) SZA (AQUA ) Date (METOP-B) Time (METOP-B) Lat,Lon (METOP-B) SZA (METOP-B ) Distance(km) Time Diff (sec)
1 10/21/2023 23:30:44 -74.87, 3.76 94.35 10/21/2023 23:29:46 -74.89, 3.69 94.33 2.88 58
2 10/22/2023 00:20:10 74.93, 171.26 85.73 10/22/2023 00:20:25 74.92, 171.13 85.73 3.72 15
3 10/24/2023 16:33:01 74.88, -71.80 86.62 10/24/2023 16:32:00 74.89, -71.88 86.63 2.78 61
4 10/24/2023 17:22:26 -74.99, 95.56 93.27 10/24/2023 17:22:40 -74.97, 95.68 93.28 3.87 14
5 10/24/2023 18:12:02 75.55, -98.35 87.32 10/24/2023 18:13:07 75.58, -95.19 87.36 87.78 65
6 10/27/2023 09:35:16 -74.92,-147.44 92.41 10/27/2023 09:34:16 -74.93,-147.35 92.41 2.65 60
7 10/27/2023 10:24:41 74.94, 20.16 87.62 10/27/2023 10:24:55 74.96, 20.07 87.64 3.20 14
8 10/30/2023 02:37:30 74.92, 137.05 88.49 10/30/2023 02:36:31 74.90, 137.00 88.47 2.57 59
9 10/30/2023 03:26:54 -74.97, -55.44 91.45 10/30/2023 03:27:11 -74.99, -55.43 91.43 1.79 17
10 11/01/2023 19:39:41 -74.93, 61.50 90.62 11/01/2023 19:38:47 -74.92, 61.47 90.64 1.87 54
11 11/01/2023 20:29:07 75.01,-131.07 89.48 11/01/2023 20:29:25 74.99,-130.98 89.46 3.35 18



Historial Predications of SNOs between AQUA and METOP-B
